Location: Kalwaria Zebrzydowska
(49.8686°N, 19.6647°E)
Time: 22:12:44
(UTC+01:00)

ISS - Pass Details

Date: 02 February 2019
Orbit: 403 x 411 km, 51.6° (Epoch: 22 February)

Event Time Altitude Azimuth Distance (km) Brightness Sun altitude
Rises 19:40:56 0° 288° (WNW) 2,341 1.2 -29.7°
Reaches altitude 10° 19:43:04 10° 282° (WNW) 1,479 -0.1 -30.0°
Enters shadow 19:43:39 14° 279° (W) 1,250 -0.5 -30.1°
